AAL542 KLAX-KLAS

Flight info

Callsign AAL542
Flight time 0h 41m
Altitude 29000
Route OSHNN1 MISEN RNDRZ4
Aircraft B77W/H-SDE1E2E3FGHIJ2J3J4J5M1RWXY/LB1D1

Departure

Time 2026-05-04 04:54
Airport Los Angeles International Airport (KLAX)

Arrival

Time 2026-05-04 05:36
Airport Harry Reid International Airport (KLAS)
Time Latitude Longitude Altitude Speed Heading
2026-05-04 04:35 33.94637 -118.40859 130 ft 0 kts 86°
2026-05-04 04:45 33.94636 -118.40868 130 ft 1 kts 75°
2026-05-04 04:45 33.94634 -118.40876 125 ft 1 kts 61°
2026-05-04 04:45 33.94630 -118.40883 125 ft 1 kts 48°
2026-05-04 04:47 33.94619 -118.40895 125 ft 0 kts 14°
2026-05-04 04:50 33.94621 -118.40894 125 ft 1 kts 14°
2026-05-04 04:50 33.94638 -118.40897 128 ft 3 kts 349°
2026-05-04 04:50 33.94668 -118.40907 129 ft 5 kts 346°
2026-05-04 04:50 33.94718 -118.40914 128 ft 8 kts
2026-05-04 04:51 33.94775 -118.40896 126 ft 9 kts 14°
2026-05-04 04:51 33.94830 -118.40857 126 ft 10 kts 62°
2026-05-04 04:51 33.94846 -118.40772 128 ft 11 kts 81°
2026-05-04 04:51 33.94857 -118.40671 130 ft 13 kts 83°
2026-05-04 04:52 33.94870 -118.40552 129 ft 15 kts 83°
2026-05-04 04:52 33.94884 -118.40412 129 ft 18 kts 82°
2026-05-04 04:52 33.94902 -118.40255 127 ft 19 kts 82°
2026-05-04 04:52 33.94920 -118.40094 128 ft 19 kts 82°
2026-05-04 04:53 33.94937 -118.39963 128 ft 12 kts 72°
2026-05-04 04:53 33.95007 -118.39920 127 ft 12 kts 354°
2026-05-04 04:53 33.95037 -118.40001 126 ft 12 kts 265°
2026-05-04 04:53 33.95017 -118.40185 126 ft 42 kts 262°
2026-05-04 04:54 33.94945 -118.40888 128 ft 126 kts 263°
2026-05-04 04:54 33.94803 -118.42183 364 ft 170 kts 262°
2026-05-04 04:54 33.94658 -118.43602 1309 ft 171 kts 264°
2026-05-04 04:54 33.94514 -118.44959 2401 ft 165 kts 263°
2026-05-04 04:55 33.94357 -118.46357 3181 ft 170 kts 263°
2026-05-04 04:55 33.94193 -118.47792 3984 ft 175 kts 262°
2026-05-04 04:55 33.94022 -118.49284 4675 ft 184 kts 262°
2026-05-04 04:55 33.93720 -118.50796 5328 ft 189 kts 237°
2026-05-04 04:56 33.92644 -118.51842 5694 ft 220 kts 197°
2026-05-04 04:56 33.91009 -118.51931 5994 ft 253 kts 177°
2026-05-04 04:56 33.89175 -118.51774 6714 ft 269 kts 179°
2026-05-04 04:56 33.87286 -118.51690 7798 ft 273 kts 181°
2026-05-04 04:57 33.85377 -118.51655 8970 ft 275 kts 182°
2026-05-04 04:57 33.83456 -118.51650 10172 ft 276 kts 183°
2026-05-04 04:57 33.81534 -118.51680 11237 ft 276 kts 184°
2026-05-04 04:57 33.79595 -118.51745 12189 ft 286 kts 185°
2026-05-04 04:58 33.77509 -118.51825 12641 ft 312 kts 185°
2026-05-04 04:58 33.75245 -118.51916 13033 ft 341 kts 185°
2026-05-04 04:58 33.72787 -118.51744 13281 ft 368 kts 169°
2026-05-04 04:58 33.70419 -118.50407 14181 ft 387 kts 147°
2026-05-04 04:59 33.68553 -118.48046 15067 ft 407 kts 127°
2026-05-04 04:59 33.67389 -118.44882 15816 ft 424 kts 112°
2026-05-04 04:59 33.66551 -118.41415 16370 ft 440 kts 110°
2026-05-04 04:59 33.65663 -118.37852 16818 ft 452 kts 111°
2026-05-04 05:00 33.64805 -118.34192 17145 ft 462 kts 108°
2026-05-04 05:00 33.64205 -118.30376 18028 ft 471 kts 102°
2026-05-04 05:00 33.64233 -118.22319 19109 ft 495 kts 88°
2026-05-04 05:01 33.64570 -118.18164 19675 ft 503 kts 85°
2026-05-04 05:01 33.65475 -118.14091 20303 ft 510 kts 65°
2026-05-04 05:01 33.67405 -118.10527 21189 ft 509 kts 45°
2026-05-04 05:01 33.70101 -118.07849 22045 ft 498 kts 25°
2026-05-04 05:02 33.73250 -118.06222 22573 ft 490 kts 10°
2026-05-04 05:02 33.76508 -118.04896 22960 ft 503 kts 16°
2026-05-04 05:02 33.79669 -118.03039 23512 ft 515 kts 24°
2026-05-04 05:02 33.82769 -118.00866 24276 ft 517 kts 26°
2026-05-04 05:03 33.85853 -117.98589 24701 ft 525 kts 26°
2026-05-04 05:03 33.88920 -117.96112 25232 ft 534 kts 31°
2026-05-04 05:04 33.96857 -117.88799 26647 ft 549 kts 32°
2026-05-04 05:04 33.99921 -117.85972 26931 ft 558 kts 31°
2026-05-04 05:04 34.03042 -117.83141 27266 ft 565 kts 31°
2026-05-04 05:06 34.22243 -117.57986 29037 ft 585 kts 48°
2026-05-04 05:06 34.24804 -117.54161 29004 ft 586 kts 47°
2026-05-04 05:07 34.29976 -117.46486 28951 ft 589 kts 47°
2026-05-04 05:07 34.35130 -117.38786 28951 ft 589 kts 47°
2026-05-04 05:09 34.58143 -117.04306 28867 ft 581 kts 47°
2026-05-04 05:10 34.63318 -116.96821 28865 ft 577 kts 47°
2026-05-04 05:10 34.68467 -116.89347 28876 ft 577 kts 47°
2026-05-04 05:11 34.73592 -116.81847 28902 ft 577 kts 47°
2026-05-04 05:11 34.78725 -116.74311 28900 ft 578 kts 47°
2026-05-04 05:12 34.83867 -116.66824 28906 ft 574 kts 45°
2026-05-04 05:12 34.89604 -116.60178 28907 ft 565 kts 33°
2026-05-04 05:13 34.95809 -116.54327 28863 ft 563 kts 33°
2026-05-04 05:13 35.01970 -116.48433 28823 ft 563 kts 33°
2026-05-04 05:14 35.08046 -116.42504 28795 ft 562 kts 34°
2026-05-04 05:14 35.13873 -116.36185 28165 ft 558 kts 43°
2026-05-04 05:15 35.16454 -116.32663 27581 ft 553 kts 46°
2026-05-04 05:15 35.18967 -116.29143 26946 ft 547 kts 45°
2026-05-04 05:15 35.21521 -116.25731 26331 ft 540 kts 44°
2026-05-04 05:15 35.24079 -116.22421 25808 ft 531 kts 44°
2026-05-04 05:16 35.26542 -116.19095 25269 ft 525 kts 46°
2026-05-04 05:16 35.28941 -116.15759 24656 ft 520 kts 46°
2026-05-04 05:16 35.31322 -116.12454 24045 ft 516 kts 46°
2026-05-04 05:16 35.33694 -116.09187 23461 ft 512 kts 46°
2026-05-04 05:17 35.36022 -116.05987 22631 ft 490 kts 46°
2026-05-04 05:17 35.38250 -116.02923 21321 ft 476 kts 46°
2026-05-04 05:17 35.40426 -115.99934 19994 ft 464 kts 47°
2026-05-04 05:17 35.42573 -115.96984 18792 ft 468 kts 47°
2026-05-04 05:18 35.44730 -115.94016 18291 ft 462 kts 48°
2026-05-04 05:18 35.46832 -115.91119 17958 ft 440 kts 48°
2026-05-04 05:18 35.48816 -115.88380 16825 ft 424 kts 49°
2026-05-04 05:18 35.50743 -115.85716 16756 ft 408 kts 49°
2026-05-04 05:19 35.52604 -115.83142 16567 ft 397 kts 49°
2026-05-04 05:19 35.54384 -115.80676 16405 ft 385 kts 49°
2026-05-04 05:19 35.56140 -115.78245 16244 ft 375 kts 50°
2026-05-04 05:19 35.57845 -115.75882 16098 ft 365 kts 50°
2026-05-04 05:20 35.59506 -115.73583 15931 ft 355 kts 49°
2026-05-04 05:20 35.61144 -115.71361 15757 ft 347 kts 49°
2026-05-04 05:20 35.62754 -115.69196 15591 ft 340 kts 49°
2026-05-04 05:20 35.64339 -115.67064 15429 ft 337 kts 49°
2026-05-04 05:21 35.65922 -115.64929 15272 ft 339 kts 50°
2026-05-04 05:21 35.67515 -115.62774 15101 ft 341 kts 50°
2026-05-04 05:21 35.69110 -115.60617 14926 ft 339 kts 50°
2026-05-04 05:21 35.70685 -115.58488 14767 ft 333 kts 50°
2026-05-04 05:22 35.72231 -115.56398 14587 ft 328 kts 49°
2026-05-04 05:22 35.73936 -115.54604 14424 ft 331 kts 33°
2026-05-04 05:22 35.75968 -115.53197 14275 ft 338 kts 30°
2026-05-04 05:22 35.78051 -115.51815 14107 ft 340 kts 30°
2026-05-04 05:23 35.80121 -115.50422 13923 ft 338 kts 30°
2026-05-04 05:23 35.82173 -115.49015 13759 ft 336 kts 31°
2026-05-04 05:23 35.84208 -115.47603 13563 ft 335 kts 31°
2026-05-04 05:23 35.86226 -115.46190 13378 ft 332 kts 32°
2026-05-04 05:24 35.88225 -115.44786 13200 ft 329 kts 32°
2026-05-04 05:24 35.90208 -115.43393 13036 ft 327 kts 32°
2026-05-04 05:24 35.92189 -115.42004 12688 ft 329 kts 31°
2026-05-04 05:24 35.94186 -115.40611 12323 ft 329 kts 31°
2026-05-04 05:25 35.96179 -115.39222 11943 ft 329 kts 31°
2026-05-04 05:25 35.98143 -115.37852 11564 ft 328 kts 31°
2026-05-04 05:25 35.99960 -115.36251 11177 ft 317 kts 51°
2026-05-04 05:25 36.01060 -115.33969 10907 ft 305 kts 75°
2026-05-04 05:26 36.01483 -115.31478 10680 ft 290 kts 93°
2026-05-04 05:26 36.01409 -115.29028 10425 ft 283 kts 99°
2026-05-04 05:26 36.01263 -115.26617 10201 ft 280 kts 99°
2026-05-04 05:26 36.01118 -115.24251 10086 ft 274 kts 99°
2026-05-04 05:27 36.00980 -115.21891 9857 ft 278 kts 99°
2026-05-04 05:28 36.00180 -115.06378 8637 ft 244 kts 99°
2026-05-04 05:29 36.00071 -115.04282 8366 ft 244 kts 99°
2026-05-04 05:29 35.99963 -115.02189 8122 ft 244 kts 99°
2026-05-04 05:29 35.99890 -115.00071 7785 ft 249 kts 96°
2026-05-04 05:29 35.99881 -114.97937 7444 ft 248 kts 95°
2026-05-04 05:31 36.06465 -114.91807 5273 ft 214 kts 298°
2026-05-04 05:31 36.06969 -114.93452 5032 ft 200 kts 277°
2026-05-04 05:32 36.07174 -114.95099 4765 ft 187 kts 272°
2026-05-04 05:32 36.07311 -114.96635 4499 ft 173 kts 269°
2026-05-04 05:32 36.07355 -114.98059 4250 ft 158 kts 265°
2026-05-04 05:33 36.07359 -115.00502 3852 ft 138 kts 265°
2026-05-04 05:33 36.07358 -115.01684 3699 ft 135 kts 266°
2026-05-04 05:33 36.07361 -115.02844 3566 ft 134 kts 268°
2026-05-04 05:33 36.07361 -115.04004 3396 ft 136 kts 266°
2026-05-04 05:34 36.07344 -115.05179 3256 ft 139 kts 269°
2026-05-04 05:34 36.07365 -115.06397 3056 ft 141 kts 267°
2026-05-04 05:34 36.07365 -115.07590 2933 ft 140 kts 267°
2026-05-04 05:34 36.07364 -115.08817 2693 ft 139 kts 267°
2026-05-04 05:35 36.07362 -115.10041 2478 ft 143 kts 268°
2026-05-04 05:35 36.07365 -115.11270 2324 ft 144 kts 267°
2026-05-04 05:35 36.07373 -115.12494 2224 ft 144 kts 267°
2026-05-04 05:35 36.07373 -115.13696 2124 ft 133 kts 263°
2026-05-04 05:36 36.07364 -115.14686 2130 ft 92 kts 270°
2026-05-04 05:36 36.07374 -115.15247 2125 ft 38 kts 282°